Location: Hilton Head Island
(32.2163°N, 80.7526°W)
Time: 21:19:29
(UTC-04:00)

Tiros 1 despin weight - Pass Details

Date: 23 February 2026
Orbit: 556 x 593 km, 48.2° (Epoch: 10 March)

Event Time Altitude Azimuth Distance (km) Brightness Sun altitude
Rises 20:28:49 0° 298° (WNW) 2,729 ? -28.8°
Reaches altitude 10° 20:31:17 10° 286° (WNW) 1,834 ? -29.3°
Enters shadow 20:34:13 26° 244° (WSW) 1,099 ? -29.9°
Maximum altitude 20:34:52 28° 227° (SW) 1,065 - -30.1°
Drops below altitude 10° 20:38:28 10° 168° (SSE) 1,837 - -30.8°
Sets 20:40:57 0° 157° (SSE) 2,735 - -31.3°
